Tracking 29487 objects as of 10-Sep-2024
HD Live streaming from Space Station
objects crossing your sky now

STARLINK-5523

Track STARLINK-5523 now!
10-day predictions
STARLINK-5523 is classified as:


NORAD ID: 56470
Int'l Code: 2023-064Y
Perigee: 577.1 km
Apogee: 581.3 km
Inclination: 70.0 °
Period: 96.1 minutes
Semi major axis: 6950 km
RCS: Unknown
Launch date: May 10, 2023
Source: United States (US)
Launch site: AIR FORCE WESTERN TEST RANGE (AFWTR)
Your satellite tracking list
Your tracking list is empty




NASA's NSSDC Master Catalog

Two Line Element Set (TLE):
1 56470U 23064Y   24254.18081429  .00000528  00000-0  52036-4 0  9992
2 56470  69.9997  60.0265 0003049 268.2103  91.8707 14.98332838 74383
Source of the keplerian elements: AFSPC